DW5091 Weather Reports


time (UTC)temp
C
wind
direction
speed
KPH
gust
KPH
rain 1hr
cm
rain 24hr
cm
rain mn
cm
humidity
%
barometer
mb
20260505111103 14 4 9.7 22.5 0.00 0.00 0.00 64 1014.2
20260505110604 14 6 8.0 19.3 0.00 0.00 0.00 64 1014.2
20260505102103 13 353 12.9 24.1 0.00 0.00 0.00 70 1014.4
20260505101603 13 344 11.3 20.9 0.00 0.00 0.00 69 1014.5
20260505095602 12 354 4.8 12.9 0.00 0.00 0.00 74 1014.7
20260505094103 12 2 9.7 22.5 0.00 0.00 0.00 74 1014.8
20260505092603 12 355 12.9 22.5 0.00 0.00 0.00 73 1014.8
20260505091103 11 355 8.0 16.1 0.00 0.00 0.00 75 1014.8
20260505085603 12 352 9.7 19.3 0.00 0.00 0.00 73 1014.7
20260505083603 11 3 6.4 19.3 0.00 0.00 0.00 76 1015.0
20260505082104 11 331 4.8 19.3 0.00 0.00 0.00 77 1014.9
20260505081103 11 353 6.4 19.3 0.00 0.00 0.00 80 1015.0
20260505080603 10 1 11.3 24.1 0.00 0.00 0.00 79 1015.1
20260505075603 10 2 8.0 14.5 0.00 0.00 0.00 82 1015.1
20260505074603 10 356 8.0 12.9 0.00 0.00 0.00 83 1015.1
20260505073603 10 358 9.7 16.1 0.00 0.00 0.00 85 1015.2
20260505073103 10 351 9.7 14.5 0.00 0.00 0.00 86 1015.2
20260505071603 9 3 8.0 16.1 0.00 0.00 0.00 88 1015.2
20260505071104 9 346 8.0 19.3 0.00 0.00 0.00 88 1015.2
20260505070104 8 3 12.9 25.7 0.00 0.00 0.00 90 1015.1
20260505065604 8 356 9.7 19.3 0.00 0.00 0.00 91 1015.2
20260505065104 8 357 9.7 16.1 0.00 0.00 0.00 91 1015.2
20260505064603 8 356 4.8 14.5 0.00 0.00 0.00 92 1015.1
20260505061603 8 346 4.8 8.0 0.00 0.00 0.00 95 1015.0
20260505060103 8 356 3.2 4.8 0.00 0.00 0.00 94 1015.0
20260505054605 8 346 4.8 9.7 0.00 0.00 0.00 93 1014.8
20260505054104 8 350 3.2 11.3 0.00 0.00 0.00 93 1014.7
20260505053104 8 9 1.6 4.8 0.00 0.00 0.00 94 1014.7
20260505052103 8 346 3.2 8.0 0.00 0.00 0.00 95 1014.6
20260505051605 8 14 0.0 3.2 0.00 0.00 0.00 95 1014.7
20260505051103 8 23 0.0 1.6 0.00 0.00 0.00 95 1014.6
20260505050603 8 25 0.0 1.6 0.00 0.00 0.00 95 1014.7
20260505050103 8 25 0.0 3.2 0.00 0.00 0.00 95 1014.7
20260505041103 8 43 0.0 1.6 0.00 0.00 0.00 95 1015.1
20260505035603 8 36 1.6 4.8 0.00 0.00 0.00 95 1015.1
20260505034103 8 334 1.6 4.8 0.00 0.00 0.00 94 1015.0
20260505033603 8 15 1.6 4.8 0.00 0.00 0.00 94 1015.0
20260505032604 8 9 3.2 8.0 0.00 0.00 0.00 94 1014.9
20260505031603 9 0 3.2 8.0 0.00 0.00 0.00 94 1014.9
20260505025104 10 347 3.2 4.8 0.00 0.00 0.00 93 1014.8
20260505024603 10 358 4.8 11.3 0.00 0.00 0.00 93 1014.8
20260505024103 10 335 4.8 11.3 0.00 0.00 0.00 92 1014.8
20260505023603 10 340 3.2 4.8 0.00 0.00 0.00 92 1014.7
20260505023103 10 355 4.8 4.8 0.00 0.00 0.00 91 1014.7
20260505022603 10 343 4.8 9.7 0.00 0.00 0.00 91 1014.8
20260505020604 10 358 1.6 4.8 0.00 0.00 0.00 91 1014.9
20260505015603 10 328 4.8 8.0 0.00 0.00 0.00 90 1015.1
20260505014104 11 317 1.6 4.8 0.00 0.00 0.00 90 1015.1
20260505013104 11 342 0.0 1.6 0.00 0.00 0.00 90 1015.1
20260505012104 11 22 0.0 1.6 0.00 0.00 0.00 90 1015.1
20260505004603 11 9 0.0 3.2 0.00 0.00 0.00 90 1015.4
20260505004104 11 359 1.6 3.2 0.00 0.00 0.00 89 1015.5
20260505003603 11 354 1.6 4.8 0.00 0.00 0.00 90 1015.5
20260505002104 11 357 1.6 4.8 0.00 0.00 0.00 89 1015.5
20260505001603 11 353 1.6 4.8 0.00 0.00 0.00 89 1015.5
20260505001103 11 2 1.6 3.2 0.00 0.00 0.00 89 1015.6
20260505000603 11 345 1.6 4.8 0.00 0.00 0.00 89 1015.6
20260505000103 11 349 3.2 4.8 0.00 0.00 0.00 89 1015.6
20260504235603 11 343 1.6 8.0 0.00 0.00 0.00 89 1015.6
20260504234603 11 350 0.0 8.0 0.00 0.00 0.00 89 1015.6
20260504233604 11 348 3.2 11.3 0.00 0.00 0.00 88 1015.6
20260504233103 11 353 3.2 9.7 0.00 0.00 0.00 88 1015.7
20260504232603 11 14 6.4 12.9 0.00 0.00 0.00 87 1015.6
20260504232102 11 358 4.8 9.7 0.00 0.00 0.00 88 1015.6
20260504231104 11 348 1.6 4.8 0.00 0.00 0.00 88 1015.6
20260504230604 11 352 3.2 11.3 0.00 0.00 0.00 88 1015.5
20260504224603 12 344 4.8 8.0 0.00 0.00 0.00 88 1015.7
20260504224104 12 325 1.6 4.8 0.00 0.00 0.00 88 1015.7
20260504222603 12 350 1.6 4.8 0.00 0.00 0.00 88 1015.8
20260504222103 12 347 1.6 3.2 0.00 0.00 0.00 88 1015.9
20260504214604 12 348 1.6 4.8 0.00 0.00 0.00 87 1015.9
20260504214104 12 15 1.6 4.8 0.00 0.00 0.00 87 1016.0
20260504213604 12 350 0.0 4.8 0.00 0.00 0.00 87 1015.9
20260504205603 12 349 3.2 8.0 0.00 0.00 0.00 86 1015.9
20260504204103 12 347 1.6 4.8 0.00 0.00 0.00 86 1015.9
20260504203604 12 346 1.6 4.8 0.00 0.00 0.00 86 1015.9
20260504203104 12 344 1.6 4.8 0.00 0.00 0.00 85 1015.9
20260504202604 12 314 0.0 4.8 0.00 0.00 0.00 85 1015.8
20260504202103 12 331 1.6 4.8 0.00 0.00 0.00 85 1015.8
20260504201603 12 333 0.0 4.8 0.00 0.00 0.00 85 1015.8
20260504201103 12 308 0.0 4.8 0.00 0.00 0.00 85 1015.7
20260504200604 12 308 0.0 3.2 0.00 0.00 0.00 85 1015.7
20260504195605 13 295 0.0 4.8 0.00 0.00 0.00 85 1015.7
20260504194603 13 325 1.6 3.2 0.00 0.00 0.00 85 1015.6
20260504194104 13 22 3.2 8.0 0.00 0.00 0.00 85 1015.6
20260504192603 13 334 1.6 4.8 0.00 0.00 0.00 84 1015.3
20260504191603 13 318 0.0 1.6 0.00 0.00 0.00 85 1015.2
20260504190104 13 80 0.0 1.6 0.00 0.00 0.00 84 1015.1
20260504185103 13 318 0.0 4.8 0.00 0.00 0.00 84 1015.1
20260504184603 13 309 0.0 1.6 0.00 0.00 0.00 84 1015.1
20260504184103 13 301 0.0 4.8 0.00 0.00 0.00 83 1015.1
20260504181604 14 291 1.6 3.2 0.00 0.00 0.00 81 1014.9
20260504181103 14 136 0.0 4.8 0.00 0.00 0.00 81 1014.9
20260504180603 14 281 0.0 3.2 0.00 0.00 0.00 81 1014.9
20260504180103 14 321 0.0 4.8 0.00 0.00 0.00 81 1014.9
20260504174603 14 346 3.2 8.0 0.00 0.00 0.00 80 1014.8
20260504173603 14 309 1.6 3.2 0.00 0.00 0.00 80 1014.7
20260504173104 14 358 3.2 11.3 0.00 0.00 0.00 80 1014.7
20260504172603 14 319 3.2 9.7 0.00 0.00 0.00 80 1014.7
20260504172104 15 330 3.2 16.1 0.00 0.00 0.00 80 1014.7
20260504171103 15 2 3.2 11.3 0.00 0.00 0.00 80 1014.7
20260504150603 15 344 11.3 19.3 0.00 0.00 0.00 81 1014.8
20260504150103 15 351 11.3 20.9 0.00 0.00 0.00 81 1014.7